Погода в Зугдиди

Погода в Зугдиди : погода сейчас, прогноз погоды и архив. Всё, что Вы хотите узнать о погоде в Зугдиди!

Поиск расширенной информации на нашем сайте:

Другие новости

Новости СМИ2

Главная страница сайта

Новости сайта

03.07.2017

Напоминаем, что на нашем специализированном сайте Метеоцентр.Азия вы можете получить высокодетализированные автоматические прогнозы погоды по пунктам России, СНГ и мира в авиационном формате (включающие направление и скорость ветра, видимость, явления погоды, количество и форму облачности, нижнюю и верхнюю границу облачности).


Погода в Зугдиди - сегодня

Время (UTC), дата Ветер
(°,м/с) 
Видим.   Явления Облачность Т
(°С)
Тd
(°С)
f(%) Тe
(°С)
Pmin
(гПа)
dP
(гПа)
Po
(мм)
O2
(г/м3)
Тmin Tmax R s Состояние
почвы
18 23.07.17 100 (В) н/о    н/о 
+22.2 +20.7 91 +43  1018.6  750  274    +24.9  25     
21 23.07.17 020 (С) н/о    н/о 
+21.9 +21 95 +43  1018.2  -0.4  749  274      0.5     
00 24.07.17 090 (В) н/о    н/о 
+21.3 +20.8 97 +42  1016.8  -1.4  748  274         
03 24.07.17 110 (В) н/о    н/о 
+21.6 +21 96 +43  1016.3  -0.5  748  274         
06 24.07.17 160 (Ю) н/о    н/о 
+24.3 +20.8 81 +45  1015.3  -0.8  747  271  +21.3       
09 24.07.17 280 (З) н/о    н/о 
+27.4 +20.3 65 +47  1014.4  -0.7  747  269           
12 24.07.17 270 (З) н/о    н/о 
+26.8 +21 71 +48  1013.9  -0.5  746  269           
15 24.07.17 240 (ЮЗ) н/о    н/о 
+25.2 +21.6 80 +48  1013.7  -0.3  746  270    +29       
18 24.07.17 210 (ЮЗ) н/о    н/о 
+23.6 +22 91 +47  1014.5  0.7  747  271    +29       
21 24.07.17 270 (З) н/о    н/о 
+21.9 +21.3 96 +44  1014  -0.6  746  273         
00 25.07.17 200 (Ю) н/о    н/о 
+21.2 +20.8 98 +42  1013  -1  746  274         
03 25.07.17 230 (ЮЗ) н/о    н/о 
+21.1 +20.3 95 +41  1014  746  274         
06 25.07.17 120 (ЮВ) н/о    н/о 
+24.4 +21.1 82 +46  1012.7  -1.1  746  270  +20.6       
12 25.07.17 270 (З) н/о    н/о 
+28.5 +22.1 68 +53  1010.9  -0.9  744  266           
15 25.07.17 250 (З) н/о    н/о 
+27.5 +21.4 69 +50  1011  0.1  744  267    +29.3       
18 25.07.17 270 (З) н/о    н/о 
+24.2 +22.2 89 +48  1012.6  1.3  745  270    +29.3       
21 25.07.17 010 (С) н/о    н/о 
+23.6 +22.1 91 +48  1012.6  745  271           
00 26.07.17 110 (В) н/о    н/о 
+21.8 +21 95 +43  1011.7  -1  745  273           
03 26.07.17 050 (СВ) н/о    н/о 
+21.6 +21 96 +43  1012.2  0.5  745  273           
06 26.07.17 100 (В) н/о    н/о 
+27.4 +21.7 71 +50  1011.2  -0.7  745  267  +20.6         
09 26.07.17 290 (З) н/о    н/о 
+30.8 +22.1 60 +55  1010.1  -0.9  744  264           
12 26.07.17 290 (З) н/о    н/о 
+31.4 +24 65 +61  1009.8  -0.2  744  262           
15 26.07.17 280 (З) н/о    н/о 
+30.7 +23.7 66 +59  1009.9  744  263    +31.9       
18 26.07.17 100 (В) н/о    н/о 
+24.3 +23.2 94 +51  1011.2  0.9  744  269    +31.9       
21 26.07.17 130 (ЮВ) н/о    н/о 
+22.6 +22 96 +46  1011.6  0.3  745  271           
Время (UTC), дата Ветер
(°,м/с) 
Видим.   Явления Облачность Т
(°С)
Тd
(°С)
f(%) Тe
(°С)
Pmin
(гПа)
dP
(гПа)
Po
(мм)
O2
(г/м3)
Тmin Tmax R s Состояние
почвы

Для получения пояснительной информации подведите курсор к названию столбца.

ПОГОДА в Зугдиди - архив

Всё, что Вы хотите узнать о погоде в Зугдиди - удобно и подробно!

Выберите нужную дату (начиная с 1 января 2015* года) и нажмите кнопку "Найти".
Будут отображены архивные сводки погоды по пункту Зугдиди, начиная с указанной даты.


Отображать данные в формате CSV (для использования в таблицах Excel)


Внимание! Наш архив погоды предназначен исключительно для личного некоммерческого использования в познавательных целях. Если Вам необходимы официальные справки о состоянии погоды (для производственных, юридических, коммерческих и т.п. целей), обращайтесь в органы Росгидромета.

*Примечание: данная дата относится к архиву по метеостанциям СССР (Россия, СНГ, Балтия).
Архив по метеостанциям Зарубежной Европы и Азии (кроме Китая) хранится 10 дней, по другим регионам земного шара (Китай, Африка, Америка, Австралия, Океания) - 1 день.

Зугдиди - район местоположения метеостанции


Название, широта, долгота, высота метеостанции:
Зугдиди 42.5°ш. 41.9°д. 117 м над ур. моря [Грузия]

Дополнительная информация

В oтличие oт бoльшинства пoгoдных сайтoв мы публикуем пoдрoбную метеoинфoрмацию в детальнoм прoфессиoнальнoм фoрмате.

Характеристики температуры и влажнoсти вoздуха измеряются на высoте 2 м в тени вдали oт зданий и деревьев.
Скoрoсть ветра измеряется на высoте 10 м (на урoвне рoста челoвека скoрoсть ветра ниже в 1.5-2 раза). Если метеoстанция нахoдится в гoрoде или в лесу, тo скoрoсть ветра занижена на 2-4 м/с пo сравнению с oткрытым местoм. Скoрoсть ветра над акватoриями крупных рек и oзёр, а также на вершинах хoлмoв на 2-5 м/с выше, чем в oбычных услoвиях.
Атмoсфернoе давление в разных тoчках местнoсти мoжет значительнo oтличаться oт давления на метеoстанции, в зависимoсти oт услoвий рельефа (при пoдъёме на 10 м давление пoнижается примернo на 1 мм рт.ст.).